Back to catalog

STARLINK-3375

AliveCommunicationsVLEO
NORAD 51114·PAYLOAD·🇺🇸 United States

Launched Jan 19, 2022 from Cape Canaveral Space Force Station

Loading…

Next Passes (next 24 hours)

TLE

FreshSource: CelesTrak SupGP

Epoch: Sep 14, 2026, 13:51 UTC

1 51114C 22005L   26257.57756944  .00042657  00000+0  13734-2 0  2570
2 51114  53.1570 151.3475 0001385  90.3237  67.7080 15.31641134    10

Track STARLINK-3375 in real time with AllMySat

Download on the App Store